Time,TemperatureF,DewpointF,PressureIn,WindDirection,WindDirectionDegrees,WindSpeedMPH,WindSpeedGustMPH,Humidity,HourlyPrecipIn,Conditions,Clouds,dailyrainin,SoftwareType,DateUTC
2013-08-11 00:09:00,64.4,62.3,30.10,SSE,157,1.7,-999.0,93,-99.99,,,0.00,Acu-Link.com,2013-08-11 05:09:00,
2013-08-11 00:24:00,64.4,62.3,30.10,SSE,157,2.7,-999.0,93,-99.99,,,0.00,Acu-Link.com,2013-08-11 05:24:00,
2013-08-11 00:39:00,64.0,61.9,30.10,SSE,157,0.0,-999.0,93,-99.99,,,0.00,Acu-Link.com,2013-08-11 05:39:00,
2013-08-11 00:54:00,64.6,62.5,30.10,SSE,157,0.0,-999.0,93,-99.99,,,0.00,Acu-Link.com,2013-08-11 05:54:00,
2013-08-11 01:25:00,64.6,63.7,30.11,North,0,1.1,-999.0,97,-99.99,,,0.00,Acu-Link.com,2013-08-11 06:25:00,
2013-08-11 01:40:00,64.2,63.6,30.12,WNW,292,0.0,-999.0,98,-99.99,,,0.00,Acu-Link.com,2013-08-11 06:40:00,
2013-08-11 01:55:00,64.2,63.6,30.11,SE,135,0.0,-999.0,98,-99.99,,,0.00,Acu-Link.com,2013-08-11 06:55:00,
2013-08-11 02:26:00,64.4,63.8,30.11,SSE,157,0.0,-999.0,98,-99.99,,,0.00,Acu-Link.com,2013-08-11 07:26:00,
2013-08-11 02:41:00,64.4,63.8,30.11,West,270,0.0,-999.0,98,-99.99,,,0.00,Acu-Link.com,2013-08-11 07:41:00,
2013-08-11 02:57:00,64.4,63.8,30.10,ENE,67,0.0,-999.0,98,-99.99,,,0.00,Acu-Link.com,2013-08-11 07:57:00,
2013-08-11 03:14:00,64.4,63.8,30.09,East,90,1.1,-999.0,98,-99.99,,,0.00,Acu-Link.com,2013-08-11 08:14:00,
2013-08-11 03:29:00,64.2,63.3,30.09,ESE,112,0.0,-999.0,97,-99.99,,,0.00,Acu-Link.com,2013-08-11 08:29:00,
2013-08-11 03:44:00,64.2,62.4,30.10,SSE,157,1.7,-999.0,94,-99.99,,,0.00,Acu-Link.com,2013-08-11 08:44:00,
2013-08-11 04:00:00,64.2,62.1,30.09,SSE,157,2.7,-999.0,93,-99.99,,,0.00,Acu-Link.com,2013-08-11 09:00:00,
2013-08-11 04:15:00,63.7,62.2,30.09,SSW,202,1.7,-999.0,95,-99.99,,,0.00,Acu-Link.com,2013-08-11 09:15:00,
2013-08-11 04:30:00,63.9,62.1,30.10,SSE,157,0.0,-999.0,94,-99.99,,,0.00,Acu-Link.com,2013-08-11 09:30:00,
2013-08-11 04:45:00,64.0,62.2,30.10,SW,225,0.0,-999.0,94,-99.99,,,0.00,Acu-Link.com,2013-08-11 09:45:00,
2013-08-11 05:00:00,64.4,62.0,30.10,South,180,3.2,-999.0,92,-99.99,,,0.00,Acu-Link.com,2013-08-11 10:00:00,
2013-08-11 05:15:00,64.4,62.0,30.09,SSE,157,2.7,-999.0,92,-99.99,,,0.00,Acu-Link.com,2013-08-11 10:15:00,
2013-08-11 05:30:00,64.4,62.0,30.09,SE,135,2.2,-999.0,92,-99.99,,,0.00,Acu-Link.com,2013-08-11 10:30:00,
2013-08-11 05:45:00,64.2,62.1,30.09,ESE,112,2.2,-999.0,93,-99.99,,,0.00,Acu-Link.com,2013-08-11 10:45:00,
2013-08-11 06:00:00,63.5,62.0,30.09,SSE,157,2.2,-999.0,95,-99.99,,,0.00,Acu-Link.com,2013-08-11 11:00:00,
2013-08-11 06:31:00,63.3,62.7,30.08,ESE,112,1.1,-999.0,98,-99.99,,,0.00,Acu-Link.com,2013-08-11 11:31:00,
2013-08-11 06:46:00,63.9,63.0,30.08,East,90,2.2,-999.0,97,-99.99,,,0.00,Acu-Link.com,2013-08-11 11:46:00,
2013-08-11 07:01:00,64.0,63.1,30.08,ESE,112,1.1,-999.0,97,-99.99,,,0.00,Acu-Link.com,2013-08-11 12:01:00,
2013-08-11 07:47:00,65.8,64.6,30.09,South,180,2.7,-999.0,96,-99.99,,,0.00,Acu-Link.com,2013-08-11 12:47:00,
2013-08-11 08:02:00,66.2,64.7,30.08,SSE,157,1.7,-999.0,95,-99.99,,,0.00,Acu-Link.com,2013-08-11 13:02:00,
2013-08-11 08:18:00,66.9,65.1,30.08,ESE,112,2.7,-999.0,94,-99.99,,,0.00,Acu-Link.com,2013-08-11 13:18:00,
2013-08-11 08:33:00,66.9,65.4,30.08,SSE,157,1.7,-999.0,95,-99.99,,,0.00,Acu-Link.com,2013-08-11 13:33:00,
2013-08-11 09:04:00,68.2,66.4,30.10,WSW,247,3.7,-999.0,94,-99.99,,,0.00,Acu-Link.com,2013-08-11 14:04:00,
2013-08-11 09:19:00,68.2,66.1,30.09,West,270,3.2,-999.0,93,-99.99,,,0.00,Acu-Link.com,2013-08-11 14:19:00,
2013-08-11 09:34:00,68.2,66.4,30.09,SE,135,1.7,-999.0,94,-99.99,,,0.00,Acu-Link.com,2013-08-11 14:34:00,
2013-08-11 09:49:00,70.2,67.4,30.09,SSE,157,3.7,-999.0,91,-99.99,,,0.00,Acu-Link.com,2013-08-11 14:49:00,
2013-08-11 10:04:00,71.6,68.2,30.09,SE,135,4.7,-999.0,89,-99.99,,,0.00,Acu-Link.com,2013-08-11 15:04:00,
2013-08-11 10:20:00,70.5,67.4,30.10,West,270,2.7,-999.0,90,-99.99,,,0.00,Acu-Link.com,2013-08-11 15:20:00,
2013-08-11 10:35:00,70.2,67.4,30.10,SSW,202,5.8,-999.0,91,-99.99,,,0.00,Acu-Link.com,2013-08-11 15:35:00,
2013-08-11 10:50:00,69.6,67.5,30.10,SSW,202,3.7,-999.0,93,-99.99,,,0.00,Acu-Link.com,2013-08-11 15:50:00,
2013-08-11 11:20:00,72.3,68.2,30.08,NNE,22,1.7,-999.0,87,-99.99,,,0.00,Acu-Link.com,2013-08-11 16:20:00,
2013-08-11 11:36:00,73.4,67.9,30.08,SW,225,2.7,-999.0,83,-99.99,,,0.00,Acu-Link.com,2013-08-11 16:36:00,
2013-08-11 11:51:00,75.2,69.0,30.08,ESE,112,0.0,-999.0,81,-99.99,,,0.00,Acu-Link.com,2013-08-11 16:51:00,
2013-08-11 12:06:00,74.5,69.3,30.07,NNE,22,1.7,-999.0,84,-99.99,,,0.00,Acu-Link.com,2013-08-11 17:06:00,
2013-08-11 12:21:00,74.3,68.8,30.07,NW,315,3.7,-999.0,83,-99.99,,,0.00,Acu-Link.com,2013-08-11 17:21:00,
2013-08-11 12:36:00,74.5,69.3,30.07,NNE,22,2.7,-999.0,84,-99.99,,,0.00,Acu-Link.com,2013-08-11 17:36:00,
2013-08-11 12:51:00,75.2,69.3,30.07,NE,45,2.2,-999.0,82,-99.99,,,0.00,Acu-Link.com,2013-08-11 17:51:00,
2013-08-11 13:06:00,76.6,70.0,30.06,NNW,337,2.2,-999.0,80,-99.99,,,0.00,Acu-Link.com,2013-08-11 18:06:00,
2013-08-11 13:22:00,74.5,69.0,30.06,NW,315,4.7,-999.0,83,-99.99,,,0.00,Acu-Link.com,2013-08-11 18:22:00,
2013-08-11 13:37:00,75.6,69.0,30.06,East,90,2.7,-999.0,80,-99.99,,,0.00,Acu-Link.com,2013-08-11 18:37:00,
2013-08-11 13:52:00,78.3,71.2,30.06,West,270,2.2,-999.0,79,-99.99,,,0.00,Acu-Link.com,2013-08-11 18:52:00,
2013-08-11 14:23:00,80.6,69.0,30.05,SE,135,3.7,-999.0,68,-99.99,,,0.00,Acu-Link.com,2013-08-11 19:23:00,
2013-08-11 14:38:00,80.2,69.1,30.05,SSE,157,4.7,-999.0,69,-99.99,,,0.00,Acu-Link.com,2013-08-11 19:38:00,
2013-08-11 14:53:00,79.9,68.8,30.05,NNE,22,2.2,-999.0,69,-99.99,,,0.00,Acu-Link.com,2013-08-11 19:53:00,
2013-08-11 15:09:00,76.5,68.4,30.06,North,0,3.7,-999.0,76,-99.99,,,0.00,Acu-Link.com,2013-08-11 20:09:00,
2013-08-11 15:24:00,79.0,69.2,30.05,NE,45,4.2,-999.0,72,-99.99,,,0.00,Acu-Link.com,2013-08-11 20:24:00,
2013-08-11 15:54:00,76.8,67.9,30.06,West,270,1.1,-999.0,74,-99.99,,,0.00,Acu-Link.com,2013-08-11 20:54:00,
2013-08-11 16:09:00,76.8,68.6,30.06,NNE,22,3.7,-999.0,76,-99.99,,,0.00,Acu-Link.com,2013-08-11 21:09:00,
2013-08-11 16:25:00,77.4,68.8,30.06,ESE,112,2.2,-999.0,75,-99.99,,,0.00,Acu-Link.com,2013-08-11 21:25:00,
2013-08-11 16:40:00,78.3,68.5,30.06,NW,315,2.7,-999.0,72,-99.99,,,0.00,Acu-Link.com,2013-08-11 21:40:00,
2013-08-11 16:55:00,79.5,67.6,30.06,North,0,3.2,-999.0,67,-99.99,,,0.00,Acu-Link.com,2013-08-11 21:55:00,
2013-08-11 17:10:00,80.4,69.3,30.05,WNW,292,0.0,-999.0,69,-99.99,,,0.00,Acu-Link.com,2013-08-11 22:10:00,
2013-08-11 17:26:00,79.7,69.9,30.04,East,90,5.3,-999.0,72,-99.99,,,0.00,Acu-Link.com,2013-08-11 22:26:00,
2013-08-11 17:41:00,78.3,69.3,30.04,East,90,3.7,-999.0,74,-99.99,,,0.00,Acu-Link.com,2013-08-11 22:41:00,
2013-08-11 17:56:00,78.4,69.8,30.04,ENE,67,2.7,-999.0,75,-99.99,,,0.00,Acu-Link.com,2013-08-11 22:56:00,
2013-08-11 18:11:00,79.5,69.3,30.03,NE,45,2.7,-999.0,71,-99.99,,,0.00,Acu-Link.com,2013-08-11 23:11:00,
2013-08-11 18:42:00,85.1,69.1,30.03,NE,45,0.0,-999.0,59,-99.99,,,0.00,Acu-Link.com,2013-08-11 23:42:00,
2013-08-11 18:57:00,84.0,69.6,30.02,WSW,247,0.0,-999.0,62,-99.99,,,0.00,Acu-Link.com,2013-08-11 23:57:00,
2013-08-11 19:12:00,84.4,68.5,30.02,South,180,0.0,-999.0,59,-99.99,,,0.00,Acu-Link.com,2013-08-12 00:12:00,
2013-08-11 19:43:00,79.0,68.4,30.02,SSW,202,0.0,-999.0,70,-99.99,,,0.00,Acu-Link.com,2013-08-12 00:43:00,
2013-08-11 19:58:00,78.8,69.0,30.02,WSW,247,1.7,-999.0,72,-99.99,,,0.00,Acu-Link.com,2013-08-12 00:58:00,
2013-08-11 20:13:00,74.8,68.2,30.02,West,270,0.0,-999.0,80,-99.99,,,0.00,Acu-Link.com,2013-08-12 01:13:00,
2013-08-11 20:29:00,71.8,67.7,30.03,South,180,1.7,-999.0,87,-99.99,,,0.00,Acu-Link.com,2013-08-12 01:29:00,
2013-08-11 20:44:00,70.5,67.1,30.03,SSW,202,0.0,-999.0,89,-99.99,,,0.00,Acu-Link.com,2013-08-12 01:44:00,
2013-08-11 20:59:00,69.6,67.2,30.03,WSW,247,0.0,-999.0,92,-99.99,,,0.00,Acu-Link.com,2013-08-12 01:59:00,
2013-08-11 21:14:00,68.4,66.6,30.03,SW,225,0.0,-999.0,94,-99.99,,,0.00,Acu-Link.com,2013-08-12 02:14:00,
2013-08-11 21:45:00,67.3,66.7,30.05,South,180,2.2,-999.0,98,-99.99,,,0.00,Acu-Link.com,2013-08-12 02:45:00,
2013-08-11 22:00:00,66.9,66.3,30.04,WSW,247,1.7,-999.0,98,-99.99,,,0.00,Acu-Link.com,2013-08-12 03:00:00,
2013-08-11 22:15:00,66.7,66.1,30.04,South,180,2.2,-999.0,98,-99.99,,,0.00,Acu-Link.com,2013-08-12 03:15:00,
2013-08-11 22:31:00,66.7,66.1,30.04,South,180,0.0,-999.0,98,-99.99,,,0.00,Acu-Link.com,2013-08-12 03:31:00,
2013-08-11 23:01:00,66.6,66.0,30.05,SW,225,2.2,-999.0,98,-99.99,,,0.00,Acu-Link.com,2013-08-12 04:01:00,
2013-08-11 23:16:00,67.1,66.5,30.05,SSW,202,2.2,-999.0,98,-99.99,,,0.00,Acu-Link.com,2013-08-12 04:16:00,
2013-08-11 23:31:00,65.8,65.2,30.04,SW,225,0.0,-999.0,98,-99.99,,,0.00,Acu-Link.com,2013-08-12 04:31:00,
2013-08-11 23:46:00,66.2,65.6,30.04,SSW,202,2.2,-999.0,98,-99.99,,,0.00,Acu-Link.com,2013-08-12 04:46:00,